Weather History for Kirksville, MO

Change the Weather History Date:

Saturday, March 16, 2013

  Actual Average Record
Temperature  
Mean Temperature 37 °F 41 °F  
Max Temperature 43 °F 51 °F 82 °F (2012)
Min Temperature 30 °F 31 °F 8 °F (1923)
Degree Days  
Heating Degree Days 28 24  
Month to date heating degree days 533 438  
Since 1 July heating degree days 4913 4971  
Cooling Degree Days 0 0  
Month to date cooling degree days 0 0  
Year to date cooling degree days 0 0  
Moisture  
Dew Point 31 °F    
Average Humidity 78    
Maximum Humidity 92    
Minimum Humidity 64    
Precipitation  
Precipitation 0.00 in 0.09 in 1.12 in (1942)
Month to date precipitation 2.63 1.34  
Year to date precipitation 8.08 4.14  
Sea Level Pressure  
Sea Level Pressure 29.99 in    
Wind  
Wind Speed 12 mph (North)    
Max Wind Speed 22 mph    
Max Gust Speed 29 mph    
Visibility 7 miles    
Events      
T = Trace of Precipitation, MM = Missing Value Source: NWS Daily Summary

Daily Weather History Graph

Daily Weather History Graph

Search for Another Location

Airport:

Trip Planner

Search our weather history database for the weather conditions in past years. The results will help you decide how hot, cold, wet, or windy it might be!

Date:

Astronomy

Mar. 16, 2013 Rise Set
Actual Time 7:19 AM CDT 7:18 PM CDT
Civil Twilight 6:52 AM CDT 7:45 PM CDT
Nautical Twilight 6:21 AM CDT 8:17 PM CDT
Astronomical Twilight 5:49 AM CDT 8:49 PM CDT
Moon 9:49 AM CDT No Moon Set
Length of Visible Light 12h 52m
Length of Day
11h 58m
Waxing Crescent, 23% of the Moon is Illuminated
Mar 16
Waxing Crescent
Mar 19
First Quarter
Mar 27
Full
Apr 2
Last Quarter
Apr 10
New

Hourly Weather History & Observations

Time (CDT) Temp. Windchill Dew Point Humidity Pressure Visibility Wind Dir Wind Speed Gust Speed Precip Events Conditions
12:55 AM 43.0 °F 38.8 °F 39.9 °F 89% 29.72 in 5.0 mi North 6.9 mph - N/A   Clear
1:55 AM 42.1 °F 37.1 °F 37.9 °F 85% 29.74 in 5.0 mi NNW 8.1 mph - N/A   Clear
2:55 AM 41.0 °F 33.9 °F 37.0 °F 86% 29.76 in 5.0 mi NNW 12.7 mph - N/A   Clear
3:55 AM 39.0 °F 32.3 °F 36.0 °F 89% 29.77 in 4.0 mi North 10.4 mph - N/A   Clear
4:55 AM 37.9 °F 30.0 °F 35.1 °F 89% 29.80 in 3.0 mi North 12.7 mph 19.6 mph N/A   Mostly Cloudy
5:55 AM 37.9 °F 29.2 °F 35.1 °F 89% 29.86 in 3.0 mi NNW 15.0 mph 20.7 mph N/A   Overcast
6:55 AM 37.0 °F 28.1 °F 34.0 °F 89% 29.92 in 3.0 mi NNW 15.0 mph 26.5 mph N/A   Overcast
7:55 AM 37.0 °F 28.5 °F 33.1 °F 86% 29.97 in 4.0 mi NNW 13.8 mph 20.7 mph N/A   Overcast
8:20 AM 37.4 °F 29.8 °F 33.8 °F 87% 29.95 in 3.0 mi NNW 11.5 mph - N/A   Overcast
8:55 AM 37.0 °F 28.9 °F 32.0 °F 82% 29.99 in 4.0 mi North 12.7 mph 20.7 mph N/A   Haze
9:55 AM 37.0 °F 28.1 °F 32.0 °F 82% 30.00 in 5.0 mi North 15.0 mph - N/A   Haze
10:07 AM 37.4 °F 29.3 °F 32.0 °F 81% 29.99 in 6.0 mi North 12.7 mph - N/A   Haze
10:55 AM 37.0 °F 29.3 °F 30.9 °F 79% 30.03 in 8.0 mi North 11.5 mph - N/A   Overcast
11:55 AM 37.0 °F 28.9 °F 30.0 °F 76% 30.05 in 10.0 mi North 12.7 mph - N/A   Overcast
12:55 PM 37.0 °F 28.5 °F 28.9 °F 73% 30.09 in 10.0 mi NNW 13.8 mph 18.4 mph N/A   Overcast
1:55 PM 37.9 °F 30.0 °F 28.9 °F 70% 30.08 in 10.0 mi North 12.7 mph - N/A   Overcast
2:55 PM 37.9 °F 30.0 °F 28.0 °F 68% 30.07 in 10.0 mi North 12.7 mph - N/A   Overcast
3:55 PM 37.0 °F 29.3 °F 28.0 °F 70% 30.07 in 10.0 mi North 11.5 mph - N/A   Overcast
4:55 PM 37.0 °F 31.0 °F 27.0 °F 67% 30.07 in 10.0 mi North 8.1 mph - N/A   Overcast
5:55 PM 37.0 °F 30.4 °F 27.0 °F 67% 30.09 in 10.0 mi North 9.2 mph - N/A   Overcast
6:55 PM 36.0 °F 29.6 °F 27.0 °F 70% 30.09 in 10.0 mi NNE 8.1 mph - N/A   Mostly Cloudy
7:55 PM 34.0 °F 28.0 °F 26.1 °F 73% 30.12 in 10.0 mi NNE 6.9 mph - N/A   Overcast
8:41 PM 33.8 °F 27.0 °F 26.6 °F 75% 30.07 in 10.0 mi NNE 8.1 mph - N/A   Partly Cloudy
8:55 PM 34.0 °F 27.2 °F 26.1 °F 73% 30.12 in 10.0 mi NNE 8.1 mph - N/A   Clear
9:55 PM 33.1 °F 25.5 °F 26.1 °F 75% 30.13 in 10.0 mi North 9.2 mph - N/A   Clear
10:55 PM 32.0 °F 23.0 °F 25.0 °F 75% 30.14 in 10.0 mi North 11.5 mph - N/A   Clear
11:55 PM 32.0 °F 21.6 °F 25.0 °F 75% 30.15 in 10.0 mi North 15.0 mph - N/A   Scattered Clouds